OPS 4682 DEB, 38388

Orbit data source: Space-Track

OPS 4682 DEB, 38388 is space debris in LEO originally from a launch on Sat, 03 Apr 1965 UTC launched from the Air Force Western Test Range (AFWTR). Debris objects in space refer to the collection of defunct objects orbiting the Earth. Examples of debris include non-operational satellites, rocket bodies, and fragments generated from explosions, collisions, or faulty payload assembly.

Loading next visibility...
Identifier
38388, 1965-027CR
Orbit
LEO
Country
Flag of USUS
Related business
Manufacturer
Unknown
Mission
Spacecraft
Bus & Motor
Unknown
Mass
Unknown
Launch date (UTC)
1965-04-03 (61 years ago)
Launch vehicle
Unknown
Launch site
Air Force Western Test Range (AFWTR)
Object type
Payload
Rocket body
Debris
Shape & HBR
Unknown shape, 0.1 m
Radar Cross Section
Small (<0.1 m²)

Expand to show TLE details & history
Last TLE update: 3 days ago

TLE from 3 days ago
0 OPS 4682 DEB
1 38388U 65027CR  25299.47411923  .00000541  00000-0  17567-2 0  9996
2 38388  90.2683  17.2663 0036731 242.8742 116.8632 13.00487953633687
Epoch: 2025-10-26T11:22Z
TLE epoch observation values (Epoch: 2025-10-26T11:22:43.901Z)
Latitude
-0.00007°
Longitude
171.49358°
Altitude
1,275.821 km
Speed
7.212 km/s
True Right ascension
01h 09m 03s
True Declination
0° 00' 00"
Sunlit
Object was in full shadow at epoch
Visualization orbit readout
Latitude
Unknown
Longitude
Unknown
Altitude
Unknown
Speed
Unknown
Apparent Right ascension
Unknown
Apparent Declination
Unknown
Sunlit
N/A
Visualization observer readout
Local Sidereal Time
10:37:52
Azimuth
Unknown
Elevation
Unknown
Doppler factor
Unknown
Orbital elements
Apogee altitude
1,285.347 km
Perigee altitude
1,229.256 km
Semi-major axis
7,635.439 km
Eccentricity
0.00367
Inclination
90.2683°
RAAN
17.2663°
Arg. of periapsis
242.8742°
True anomaly
117.23791°
Mean anomaly
116.8632°
Eccentric anomaly
117.05063°
Mean motion
3.25306 °/min
Orbital period
110.67 mins
BSTAR
0.0017567
Loading maneuver chart data...
Computing Atmospheric mass density...
Loading historical data...
Loading historical data...
Loading historical data...
Loading historical data...
Loading historical data...
Loading historical data...
Loading historical data...

Documentation

Showing up to 5 results
|